CZ-3C R/B (43875 NORAD) Tracking and Keplerian Element Data

This shows tracking and keplerian element data for the satellite.

Feedback or suggestion? Click here.




ElementValue
Catalog43875
NameCZ-3C R/B
Epoch Orbit67
Epoch Day22.76906169
Epoch Year2019
RAAN332.9013
Inclination28.4361
Eccentricity0.7260062
Argument of Perigee197.4169
Mean Anonmoly110.3481
Mean Motion2.31741421
Decay Rate1.328E-05
L11 43875U 18110B 19022.76906169 .00001328 00000-0 29989-3 0 9990
L22 43875 28.4361 332.9013 7260062 197.4169 110.3481 2.31741421 670

Live tracking and technical data element details for CZ-3C R/B (NORAD 43875). CZ-3C R/B can be tracked NOW for your location showing map with azimuth and elevation plus other details from your city location.

Track the satellite on the map from your city or location and see movement details for azimuth, elevation, latitude, longitude, range, height, and movement on the map or in text.







IsCatalogInMostPopularTable: catalog: 43875, numindb: 36
Update: records affected: 1



GetName: 43875 CZ-3C R/B

Hit Count: updated at: Mon, 17 Jun 2019 04:36:03 GMT